{"data":{"norad_id":67857,"epoch":"2026-05-25T04:49:25.840992Z","epoch_age_seconds":61232,"freshness":"FRESH","line1":"1 67857U 26034H   26145.20099353  .00016773  00000+0  57703-3 0  9995","line2":"2 67857  53.1569 208.5868 0001208  87.0584 273.0555 15.30205685 15754","mean_motion":15.30205685,"eccentricity":0.0001208,"inclination_deg":53.1569,"raan_deg":208.5868,"arg_perigee_deg":87.0584,"mean_anomaly_deg":273.0555,"bstar":0.00057703,"rev_number":1575,"period_min":94.104996087503,"perigee_km":474.37021220712,"apogee_km":476.02597796609,"semimajor_km":6853.3350950866,"source":"CELESTRAK","updated_at":"2026-05-25T13:38:21.726076Z"}}